When you browse on this site, cookies collect data to enhance your experience and personalize the content and advertising you see.
Visit our Privacy Policy to learn more. By continuing to use the site, you agree to this use of cookies and data.
  • In United Kingdom
  • List of Countries
  • For 7 days
  • Water Temperature
  • Satellite Maps
  • Weather Map
  • Weather Widgets
  • user-avatar
    Login

    Hourly Weather Punakha

    Today, 21 January, Monday

    Time Temperature Precipitation Wind Pressure Humidity
    00:00 +5°C° 0 mm 2 mps 583 mmHg 55%
    01:00 +4°C° 0 mm 2 mps 583 mmHg 55%
    02:00 +4°C° 0 mm 2 mps 583 mmHg 54%
    03:00 +4°C° 0 mm 2 mps 583 mmHg 53%
    04:00 +4°C° 0 mm 2 mps 583 mmHg 52%
    05:00 +4°C° 0 mm 2 mps 583 mmHg 51%
    06:00 +3°C° 0 mm 2 mps 583 mmHg 49%
    07:00 +6°C° 0 mm 2 mps 584 mmHg 44%
    08:00 +9°C° 0 mm 1 mps 586 mmHg 40%
    09:00 +11°C° 0 mm 0 mps 587 mmHg 35%
    10:00 +13°C° 0 mm 1 mps 587 mmHg 35%
    11:00 +14°C° 0 mm 2 mps 587 mmHg 35%
    12:00 +15°C° 0 mm 2 mps 588 mmHg 35%
    13:00 +15°C° 0 mm 2 mps 587 mmHg 38%
    14:00 +15°C° 0 mm 2 mps 587 mmHg 42%
    15:00 +13°C° 0 mm 3 mps 586 mmHg 45%
    16:00 +12°C° 0 mm 2 mps 585 mmHg 56%
    17:00 +9°C° 0 mm 2 mps 584 mmHg 67%
    18:00 +7°C° 0 mm 2 mps 583 mmHg 78%
    19:00 +6°C° 0 mm 2 mps 583 mmHg 76%
    20:00 +6°C° 0 mm 2 mps 584 mmHg 73%
    21:00 +5°C° 0 mm 2 mps 584 mmHg 71%
    22:00 +5°C° 0 mm 2 mps 584 mmHg 69%
    23:00 +5°C° 0 mm 2 mps 584 mmHg 67%

    Tomorrow, 22 January, Tuesday

    Time Temperature Precipitation Wind Pressure Humidity
    00:00 +4°C° 0 mm 2 mps 584 mmHg 65%
    01:00 +4°C° 0 mm 2 mps 583 mmHg 62%
    02:00 +4°C° 0 mm 2 mps 583 mmHg 59%
    03:00 +4°C° 0 mm 2 mps 583 mmHg 57%
    04:00 +3°C° 0 mm 2 mps 583 mmHg 54%
    05:00 +3°C° 0 mm 2 mps 583 mmHg 52%
    06:00 +3°C° 0 mm 2 mps 584 mmHg 49%
    07:00 +5°C° 0 mm 2 mps 585 mmHg 43%
    08:00 +9°C° 0 mm 1 mps 586 mmHg 36%
    09:00 +11°C° 0 mm 1 mps 588 mmHg 30%
    10:00 +13°C° 0 mm 1 mps 588 mmHg 27%
    11:00 +15°C° 0 mm 1 mps 588 mmHg 24%
    12:00 +16°C° 0 mm 2 mps 589 mmHg 20%
    13:00 +16°C° 0 mm 2 mps 588 mmHg 25%
    14:00 +15°C° 0 mm 2 mps 587 mmHg 29%
    15:00 +14°C° 0 mm 3 mps 586 mmHg 34%
    16:00 +12°C° 0 mm 2 mps 585 mmHg 47%
    17:00 +9°C° 0 mm 2 mps 585 mmHg 60%
    18:00 +8°C° 0 mm 1 mps 584 mmHg 73%
    19:00 +7°C° 0 mm 1 mps 584 mmHg 71%
    20:00 +7°C° 0 mm 1 mps 584 mmHg 69%
    21:00 +5°C° 0 mm 2 mps 584 mmHg 67%
    22:00 +5°C° 0 mm 2 mps 584 mmHg 63%
    23:00 +4°C° 0 mm 2 mps 584 mmHg 60%

    Day after tomorrow, 23 January, Wednesday

    Time Temperature Precipitation Wind Pressure Humidity
    00:00 +4°C° 0 mm 2 mps 584 mmHg 56%
    01:00 +4°C° 0 mm 2 mps 584 mmHg 53%
    02:00 +4°C° 0 mm 2 mps 583 mmHg 50%
    03:00 +3°C° 0 mm 2 mps 583 mmHg 47%
    04:00 +3°C° 0 mm 2 mps 583 mmHg 46%
    05:00 +3°C° 0 mm 2 mps 583 mmHg 44%
    06:00 +3°C° 0 mm 2 mps 583 mmHg 43%
    07:00 +5°C° 0 mm 2 mps 584 mmHg 41%
    08:00 +8°C° 0 mm 1 mps 585 mmHg 39%
    09:00 +10°C° 0 mm 1 mps 586 mmHg 37%
    10:00 +11°C° 0.1 mm 1 mps 586 mmHg 37%
    11:00 +12°C° 0.1 mm 1 mps 586 mmHg 38%
    12:00 +13°C° 0.1 mm 2 mps 586 mmHg 39%
    13:00 +13°C° 0.1 mm 2 mps 586 mmHg 43%
    14:00 +12°C° 0.1 mm 2 mps 585 mmHg 48%
    15:00 +10°C° 0.1 mm 2 mps 584 mmHg 52%
    16:00 +9°C° 0.2 mm 2 mps 583 mmHg 60%
    17:00 +8°C° 0.2 mm 2 mps 583 mmHg 68%
    18:00 +7°C° 0.2 mm 1 mps 583 mmHg 77%
    19:00 +6°C° 0.1 mm 2 mps 583 mmHg 76%
    20:00 +6°C° 0.1 mm 2 mps 584 mmHg 75%
    21:00 +5°C° 0.1 mm 2 mps 584 mmHg 74%
    22:00 +5°C° 0.1 mm 2 mps 584 mmHg 73%
    23:00 +4°C° 0.1 mm 2 mps 584 mmHg 72%

    24 January, Thursday

    Time Temperature Precipitation Wind Pressure Humidity
    00:00 +4°C° 0.1 mm 2 mps 584 mmHg 71%
    01:00 +4°C° 0 mm 2 mps 583 mmHg 69%
    02:00 +3°C° 0 mm 2 mps 583 mmHg 67%
    03:00 +3°C° 0 mm 2 mps 583 mmHg 65%
    04:00 +3°C° 0 mm 2 mps 583 mmHg 61%
    05:00 +3°C° 0 mm 2 mps 583 mmHg 57%
    06:00 +3°C° 0 mm 2 mps 584 mmHg 53%
    07:00 +5°C° 0 mm 2 mps 585 mmHg 48%
    08:00 +7°C° 0 mm 2 mps 586 mmHg 44%
    09:00 +9°C° 0 mm 2 mps 587 mmHg 39%
    10:00 +10°C° 0 mm 2 mps 587 mmHg 37%
    11:00 +13°C° 0 mm 2 mps 588 mmHg 35%
    12:00 +15°C° 0 mm 2 mps 588 mmHg 33%
    13:00 +15°C° 0 mm 2 mps 587 mmHg 35%
    14:00 +14°C° 0 mm 2 mps 587 mmHg 37%
    15:00 +14°C° 0 mm 2 mps 586 mmHg 39%
    16:00 +12°C° 0 mm 2 mps 585 mmHg 49%
    17:00 +8°C° 0 mm 2 mps 585 mmHg 58%
    18:00 +6°C° 0 mm 2 mps 584 mmHg 68%
    19:00 +5°C° 0 mm 2 mps 585 mmHg 61%
    20:00 +5°C° 0 mm 2 mps 585 mmHg 55%
    21:00 +3°C° 0 mm 3 mps 586 mmHg 49%
    22:00 +3°C° 0 mm 3 mps 586 mmHg 46%
    23:00 +2°C° 0 mm 3 mps 585 mmHg 43%

    25 January, Friday

    Time Temperature Precipitation Wind Pressure Humidity
    00:00 +2°C° 0 mm 3 mps 585 mmHg 40%
    01:00 +2°C° 0 mm 3 mps 585 mmHg 38%
    02:00 +2°C° 0 mm 3 mps 585 mmHg 35%
    03:00 +2°C° 0 mm 3 mps 584 mmHg 33%
    04:00 +2°C° 0 mm 3 mps 584 mmHg 33%
    05:00 +2°C° 0 mm 3 mps 584 mmHg 34%
    06:00 +2°C° 0 mm 3 mps 585 mmHg 34%
    07:00 +3°C° 0 mm 3 mps 586 mmHg 33%
    08:00 +6°C° 0 mm 2 mps 587 mmHg 31%
    09:00 +8°C° 0 mm 2 mps 588 mmHg 29%
    10:00 +10°C° 0 mm 2 mps 588 mmHg 29%
    11:00 +13°C° 0 mm 2 mps 588 mmHg 30%
    12:00 +14°C° 0 mm 1 mps 589 mmHg 30%
    13:00 +13°C° 0.1 mm 1 mps 588 mmHg 34%
    14:00 +12°C° 0.1 mm 2 mps 587 mmHg 39%
    15:00 +12°C° 0.1 mm 2 mps 586 mmHg 43%
    16:00 +9°C° 0.1 mm 2 mps 585 mmHg 47%
    17:00 +7°C° 0.1 mm 2 mps 585 mmHg 52%
    18:00 +6°C° 0.1 mm 2 mps 585 mmHg 56%
    19:00 +5°C° 0.1 mm 2 mps 585 mmHg 56%
    20:00 +5°C° 0.1 mm 2 mps 586 mmHg 55%
    21:00 +5°C° 0.1 mm 2 mps 586 mmHg 55%
    22:00 +5°C° 0.2 mm 2 mps 586 mmHg 57%
    23:00 +5°C° 0.2 mm 2 mps 586 mmHg 59%

    26 January, Saturday

    Time Temperature Precipitation Wind Pressure Humidity
    00:00 +5°C° 0.2 mm 2 mps 585 mmHg 61%
    01:00 +4°C° 0.2 mm 2 mps 585 mmHg 62%
    02:00 +4°C° 0.2 mm 2 mps 584 mmHg 64%
    03:00 +4°C° 0.2 mm 2 mps 584 mmHg 65%
    04:00 +4°C° 0.4 mm 2 mps 584 mmHg 67%
    05:00 +4°C° 0.4 mm 2 mps 584 mmHg 69%
    06:00 +4°C° 0.4 mm 2 mps 584 mmHg 71%
    07:00 +4°C° 0.4 mm 2 mps 585 mmHg 70%
    08:00 +5°C° 0.4 mm 2 mps 585 mmHg 69%
    09:00 +6°C° 0.4 mm 2 mps 586 mmHg 67%
    10:00 +6°C° 0.6 mm 2 mps 586 mmHg 67%
    11:00 +7°C° 0.6 mm 2 mps 586 mmHg 67%
    12:00 +7°C° 0.6 mm 2 mps 586 mmHg 67%
    13:00 +8°C° 0.4 mm 2 mps 585 mmHg 68%
    14:00 +8°C° 0.4 mm 2 mps 585 mmHg 69%
    15:00 +9°C° 0.4 mm 1 mps 585 mmHg 70%
    16:00 +7°C° 0.6 mm 2 mps 584 mmHg 73%
    17:00 +6°C° 0.6 mm 2 mps 584 mmHg 76%
    18:00 +5°C° 0.6 mm 2 mps 584 mmHg 79%
    19:00 +5°C° 0.4 mm 2 mps 584 mmHg 78%
    20:00 +5°C° 0.4 mm 2 mps 585 mmHg 77%
    21:00 +4°C° 0.4 mm 2 mps 585 mmHg 77%
    22:00 +4°C° 0.4 mm 2 mps 585 mmHg 77%
    23:00 +4°C° 0.4 mm 2 mps 585 mmHg 78%
    Show more